TimeEDT,TemperatureF,Dew PointF,Humidity,Sea Level PressureIn,VisibilityMPH,Wind Direction,Wind SpeedMPH,Gust SpeedMPH,PrecipitationIn,Events,Conditions,WindDirDegrees,DateUTC
12:15 AM,55.4,39.6,55,29.94,-9999.0,ESE,3.5,-,N/A,,Clear,110,2013-04-15 04:15:00
12:35 AM,53.2,39.7,60,29.94,-9999.0,Calm,Calm,-,N/A,,Clear,0,2013-04-15 04:35:00
12:55 AM,53.4,39.4,59,29.93,-9999.0,Calm,Calm,-,N/A,,Clear,0,2013-04-15 04:55:00
1:15 AM,53.1,39.4,60,29.92,-9999.0,ESE,3.5,-,N/A,,Clear,120,2013-04-15 05:15:00
1:35 AM,51.3,40.1,66,29.92,-9999.0,SE,4.6,-,N/A,,Clear,140,2013-04-15 05:35:00
1:55 AM,51.4,40.1,65,29.94,-9999.0,South,4.6,-,N/A,,Clear,190,2013-04-15 05:55:00
2:15 AM,53.4,39.2,59,29.92,-9999.0,SE,3.5,-,N/A,,Clear,130,2013-04-15 06:15:00
2:35 AM,52.0,39.4,62,29.92,-9999.0,ESE,4.6,-,N/A,,Clear,120,2013-04-15 06:35:00
2:55 AM,51.1,39.2,64,29.92,-9999.0,East,3.5,-,N/A,,Clear,90,2013-04-15 06:55:00
3:15 AM,49.6,39.2,67,29.92,-9999.0,East,3.5,-,N/A,,Clear,90,2013-04-15 07:15:00
3:35 AM,48.6,38.8,69,29.93,-9999.0,Calm,Calm,-,N/A,,Clear,0,2013-04-15 07:35:00
3:55 AM,47.8,39.2,72,29.94,-9999.0,SE,3.5,-,N/A,,Clear,140,2013-04-15 07:55:00
4:15 AM,49.1,38.8,68,29.95,10.0,SSE,4.6,-,N/A,,Clear,150,2013-04-15 08:15:00
4:35 AM,50.5,39.4,66,29.96,10.0,SE,5.8,-,N/A,,Mostly Cloudy,130,2013-04-15 08:35:00
4:55 AM,52.0,40.3,64,29.96,10.0,SE,5.8,-,N/A,,Mostly Cloudy,140,2013-04-15 08:55:00
5:15 AM,51.8,40.1,64,29.96,10.0,SE,4.6,-,N/A,,Scattered Clouds,140,2013-04-15 09:15:00
5:35 AM,51.6,40.1,65,29.97,10.0,South,6.9,-,N/A,,Clear,170,2013-04-15 09:35:00
5:55 AM,49.8,40.5,70,29.97,10.0,South,5.8,-,N/A,,Clear,170,2013-04-15 09:55:00
6:15 AM,51.6,40.1,65,29.98,10.0,South,5.8,-,N/A,,Clear,170,2013-04-15 10:15:00
6:35 AM,51.1,40.6,67,29.98,10.0,SSE,4.6,-,N/A,,Clear,150,2013-04-15 10:35:00
6:55 AM,51.3,41.2,68,29.98,10.0,Calm,Calm,-,N/A,,Clear,0,2013-04-15 10:55:00
7:15 AM,50.2,41.7,73,29.99,10.0,Calm,Calm,-,N/A,,Clear,0,2013-04-15 11:15:00
7:50 AM,51.8,44.6,76,30.00,10.0,Calm,Calm,-,N/A,,Clear,0,2013-04-15 11:50:00
8:50 AM,57.2,46.4,67,30.00,10.0,SE,8.1,-,N/A,,Clear,130,2013-04-15 12:50:00
9:59 AM,59.0,48.2,67,30.01,10.0,SE,11.5,-,N/A,,Mostly Cloudy,140,2013-04-15 13:59:00
10:50 AM,62.6,51.8,68,30.01,10.0,SSE,12.7,-,N/A,,Mostly Cloudy,150,2013-04-15 14:50:00
11:50 AM,64.4,51.8,64,30.01,10.0,SSE,11.5,23.0,N/A,,Mostly Cloudy,150,2013-04-15 15:50:00
12:50 PM,66.2,51.8,60,30.02,10.0,SSW,11.5,17.3,N/A,,Overcast,210,2013-04-15 16:50:00
1:50 PM,66.2,51.8,60,30.02,10.0,SSW,11.5,-,N/A,,Overcast,200,2013-04-15 17:50:00
2:58 PM,66.2,51.8,60,30.00,10.0,South,13.8,20.7,N/A,,Overcast,170,2013-04-15 18:58:00
3:50 PM,66.2,51.8,60,30.00,10.0,South,11.5,20.7,N/A,,Overcast,180,2013-04-15 19:50:00
4:50 PM,66.2,51.8,60,29.98,10.0,South,11.5,-,N/A,,Mostly Cloudy,170,2013-04-15 20:50:00
6:50 PM,68.0,51.8,56,29.99,10.0,South,9.2,-,N/A,,Scattered Clouds,190,2013-04-15 22:50:00
7:35 PM,65.8,51.8,60,29.99,-9999.0,South,5.8,-,N/A,,Clear,190,2013-04-15 23:35:00
7:55 PM,64.6,51.3,62,29.98,-9999.0,South,4.6,-,N/A,,Clear,170,2013-04-15 23:55:00
8:15 PM,62.8,51.1,66,29.99,-9999.0,SE,5.8,-,N/A,,Clear,130,2013-04-16 00:15:00
8:35 PM,63.3,52.3,67,29.97,-9999.0,SE,8.1,-,N/A,,Clear,130,2013-04-16 00:35:00
8:55 PM,62.6,52.7,70,29.98,-9999.0,SE,6.9,-,N/A,,Clear,140,2013-04-16 00:55:00
9:15 PM,62.2,52.7,71,29.98,-9999.0,SE,8.1,-,N/A,,Clear,140,2013-04-16 01:15:00
9:35 PM,61.9,52.5,71,29.99,-9999.0,SE,6.9,-,N/A,,Clear,140,2013-04-16 01:35:00
9:55 PM,61.7,52.2,71,30.00,-9999.0,SE,6.9,-,N/A,,Clear,140,2013-04-16 01:55:00
10:15 PM,60.6,52.0,73,30.00,-9999.0,SE,4.6,-,N/A,,Clear,140,2013-04-16 02:15:00
10:35 PM,60.6,51.8,73,30.00,-9999.0,SE,5.8,-,N/A,,Clear,140,2013-04-16 02:35:00
10:55 PM,59.7,51.8,75,30.01,-9999.0,SE,4.6,-,N/A,,Scattered Clouds,140,2013-04-16 02:55:00
11:15 PM,59.2,51.4,75,30.00,-9999.0,SSE,6.9,-,N/A,,Scattered Clouds,150,2013-04-16 03:15:00
11:35 PM,58.5,51.3,77,30.01,-9999.0,SSE,5.8,-,N/A,,Clear,150,2013-04-16 03:35:00
11:55 PM,58.5,51.1,76,30.00,-9999.0,SSE,4.6,-,N/A,,Scattered Clouds,150,2013-04-16 03:55:00